Puyallup, WA
on Wednesday, January 23, 2013

Wednesday
Previous Day Next Day
Daily Summary
 ActualAverage (KSEA)Record (KSEA)
Temperature
Mean Temperature °F / °C 43°F / 6°C  
Max Temperature 41°F / 5°C 48°F / 9°C 56°F / 13°C (2001)
Min Temperature 33°F / 1°C 37°F / 3°C 16°F / -8°C (1949)
Degree Days
Heating Degree Days 28 22  
Month to date heating degree days 534  
Since 1 July heating degree days 2472  
Cooling Degree Days 0 0  
Month to date cooling degree days 0  
Year to date cooling degree days 0  
Moisture
Dew Point 38°F / 3°C   
Average Humidity 94    
Maximum Humidity 100    
Minimum Humidity 75    
Precipitation
Precipitation 0.08 in / 2.03 cm 0.17 in / 4.32 cm 1.36 in / 3.45 cm (1959)
Month to date precipitation 4.29  
Year to date precipitation 4.29  
Snow
Snow 0.00 in / 0.00 cm in / cm 3.00 in / 7.62 cm (1952)
Month to date snowfall  
Since 1 July snowfall  
Snow Depth in / cm   
Wind
Wind Speed 1 mph / 2 km/h   
Max Wind Speed 9 mph / 14 km/h   
Max Gust Speed mph / km/h   
Visibility 9 miles / 14 kilometers   
Events Rain   

Key: T is trace of precipitation, MM is missing value
Source: NWS Daily Summary
Time(PST)TemperatureDew PointHumidity Pressure Visibility Wind DirectionWind SpeedGust SpeedPrecipitationEvents Conditions
12:15 AM 33.8°F / 1.0°C 33.8°F / 1.0°C 100% 29.94 in / 1013.8 hPa 2.5 miles / 4.0 kilometers Calm Calm - N/A   Partly Cloudy
12:35 AM 35.6°F / 2.0°C 35.6°F / 2.0°C 100% 29.94 in / 1013.8 hPa 7.0 miles / 11.3 kilometers Calm Calm - N/A   Clear
12:55 AM 35.6°F / 2.0°C 35.6°F / 2.0°C 100% 29.92 in / 1013.1 hPa 10.0 miles / 16.1 kilometers Calm Calm - N/A   Clear
1:15 AM 35.6°F / 2.0°C 35.6°F / 2.0°C 100% 29.92 in / 1013.1 hPa 10.0 miles / 16.1 kilometers Calm Calm - N/A   Clear
1:35 AM 35.6°F / 2.0°C 35.6°F / 2.0°C 100% 29.94 in / 1013.8 hPa 10.0 miles / 16.1 kilometers Calm Calm - N/A   Clear
1:55 AM 35.6°F / 2.0°C 35.6°F / 2.0°C 100% 29.91 in / 1012.8 hPa 10.0 miles / 16.1 kilometers Calm Calm - N/A   Clear
2:15 AM 37.4°F / 3.0°C 33.8°F / 1.0°C 87% 29.93 in / 1013.4 hPa 10.0 miles / 16.1 kilometers Calm Calm - N/A   Clear
2:35 AM 37.4°F / 3.0°C 35.6°F / 2.0°C 93% 29.93 in / 1013.4 hPa 10.0 miles / 16.1 kilometers Calm Calm - N/A   Clear
2:55 AM 35.6°F / 2.0°C 35.6°F / 2.0°C 100% 29.95 in / 1014.1 hPa 10.0 miles / 16.1 kilometers Calm Calm - N/A   Clear
3:15 AM 35.6°F / 2.0°C 35.6°F / 2.0°C 100% 29.93 in / 1013.4 hPa 10.0 miles / 16.1 kilometers Calm Calm - N/A   Clear
3:35 AM 35.6°F / 2.0°C 35.6°F / 2.0°C 100% 29.93 in / 1013.4 hPa 10.0 miles / 16.1 kilometers Calm Calm - N/A   Clear
3:55 AM 35.6°F / 2.0°C 35.6°F / 2.0°C 100% 29.94 in / 1013.8 hPa 10.0 miles / 16.1 kilometers Calm Calm - N/A   Clear
4:15 AM 35.6°F / 2.0°C 35.6°F / 2.0°C 100% 29.94 in / 1013.8 hPa 10.0 miles / 16.1 kilometers Calm Calm - N/A   Clear
4:35 AM 35.6°F / 2.0°C 35.6°F / 2.0°C 100% 29.94 in / 1013.8 hPa 10.0 miles / 16.1 kilometers Calm Calm - N/A   Clear
4:55 AM 37.4°F / 3.0°C 35.6°F / 2.0°C 93% 29.93 in / 1013.4 hPa 10.0 miles / 16.1 kilometers Calm Calm - N/A   Clear
5:15 AM 39.2°F / 4.0°C 32.0°F / 0.0°C 75% 29.89 in / 1012.1 hPa 10.0 miles / 16.1 kilometers Calm Calm - N/A   Clear
5:35 AM 37.4°F / 3.0°C 33.8°F / 1.0°C 87% 29.88 in / 1011.7 hPa 10.0 miles / 16.1 kilometers Calm Calm - N/A   Clear
5:55 AM 39.2°F / 4.0°C 33.8°F / 1.0°C 81% 29.91 in / 1012.8 hPa 10.0 miles / 16.1 kilometers Calm Calm - N/A   Clear
6:15 AM 39.2°F / 4.0°C 33.8°F / 1.0°C 81% 29.90 in / 1012.4 hPa 10.0 miles / 16.1 kilometers Calm Calm - N/A   Clear
6:35 AM 37.4°F / 3.0°C 35.6°F / 2.0°C 93% 29.90 in / 1012.4 hPa 10.0 miles / 16.1 kilometers Calm Calm - N/A   Clear
6:55 AM 37.4°F / 3.0°C 35.6°F / 2.0°C 93% 29.88 in / 1011.7 hPa 10.0 miles / 16.1 kilometers Calm Calm - N/A   Clear
7:15 AM 37.4°F / 3.0°C 35.6°F / 2.0°C 93% 29.89 in / 1012.1 hPa 10.0 miles / 16.1 kilometers Calm Calm - N/A   Clear
7:35 AM 37.4°F / 3.0°C 35.6°F / 2.0°C 93% 29.90 in / 1012.4 hPa 10.0 miles / 16.1 kilometers Calm Calm - N/A   Clear
7:55 AM 37.4°F / 3.0°C 35.6°F / 2.0°C 93% 29.87 in / 1011.4 hPa 10.0 miles / 16.1 kilometers Calm Calm - N/A   Clear
8:15 AM 35.6°F / 2.0°C 35.6°F / 2.0°C 100% 29.86 in / 1011.1 hPa 10.0 miles / 16.1 kilometers Calm Calm - N/A   Clear
8:35 AM 37.4°F / 3.0°C 35.6°F / 2.0°C 93% 29.86 in / 1011.1 hPa 10.0 miles / 16.1 kilometers Calm Calm - N/A   Clear
8:55 AM 37.4°F / 3.0°C 35.6°F / 2.0°C 93% 29.88 in / 1011.7 hPa 10.0 miles / 16.1 kilometers Calm Calm - N/A   Clear
9:15 AM 37.4°F / 3.0°C 35.6°F / 2.0°C 93% 29.88 in / 1011.7 hPa 10.0 miles / 16.1 kilometers Calm Calm - N/A   Clear
9:35 AM 39.2°F / 4.0°C 35.6°F / 2.0°C 87% 29.89 in / 1012.1 hPa 10.0 miles / 16.1 kilometers Calm Calm - N/A   Clear
9:55 AM 39.2°F / 4.0°C 37.4°F / 3.0°C 93% 29.88 in / 1011.7 hPa 10.0 miles / 16.1 kilometers Calm Calm - N/A   Clear
10:15 AM 39.2°F / 4.0°C 37.4°F / 3.0°C 93% 29.90 in / 1012.4 hPa 10.0 miles / 16.1 kilometers Calm Calm - N/A   Clear
10:35 AM 39.2°F / 4.0°C 37.4°F / 3.0°C 93% 29.90 in / 1012.4 hPa 10.0 miles / 16.1 kilometers Calm Calm - N/A   Clear
10:55 AM 41.0°F / 5.0°C 37.4°F / 3.0°C 87% 29.89 in / 1012.1 hPa 9.0 miles / 14.5 kilometers Calm Calm - N/A Rain Light Rain
11:15 AM 39.2°F / 4.0°C 37.4°F / 3.0°C 93% 29.88 in / 1011.7 hPa 8.0 miles / 12.9 kilometers Calm Calm - N/A Rain Light Rain
11:35 AM 39.2°F / 4.0°C 37.4°F / 3.0°C 93% 29.87 in / 1011.4 hPa 10.0 miles / 16.1 kilometers Calm Calm - N/A Rain Light Rain
11:55 AM 39.2°F / 4.0°C 37.4°F / 3.0°C 93% 29.87 in / 1011.4 hPa 10.0 miles / 16.1 kilometers Calm Calm - N/A   Clear
12:15 PM 39.2°F / 4.0°C 39.2°F / 4.0°C 100% 29.87 in / 1011.4 hPa 10.0 miles / 16.1 kilometers Calm Calm - N/A   Clear
12:35 PM 41.0°F / 5.0°C 37.4°F / 3.0°C 87% 29.86 in / 1011.1 hPa 10.0 miles / 16.1 kilometers Calm Calm - N/A   Partly Cloudy
12:55 PM 41.0°F / 5.0°C 37.4°F / 3.0°C 87% 29.86 in / 1011.1 hPa 9.0 miles / 14.5 kilometers Calm Calm - N/A   Mostly Cloudy
1:15 PM 41.0°F / 5.0°C 39.2°F / 4.0°C 93% 29.86 in / 1011.1 hPa 7.0 miles / 11.3 kilometers Calm Calm - N/A Rain Light Rain
1:35 PM 41.0°F / 5.0°C 39.2°F / 4.0°C 93% 29.86 in / 1011.1 hPa 4.0 miles / 6.4 kilometers Calm Calm - N/A Rain Light Rain
1:55 PM 41.0°F / 5.0°C 41.0°F / 5.0°C 100% 29.85 in / 1010.7 hPa 4.0 miles / 6.4 kilometers Calm Calm - N/A Rain Light Rain
2:15 PM 41.0°F / 5.0°C 41.0°F / 5.0°C 100% 29.86 in / 1011.1 hPa 5.0 miles / 8.0 kilometers Calm Calm - N/A Rain Light Rain
2:35 PM 41.0°F / 5.0°C 41.0°F / 5.0°C 100% 29.87 in / 1011.4 hPa 4.0 miles / 6.4 kilometers Calm Calm - 0.02 in / 0.5 cm Rain Light Rain
2:55 PM 41.0°F / 5.0°C 41.0°F / 5.0°C 100% 29.88 in / 1011.7 hPa 5.0 miles / 8.0 kilometers Calm Calm - 0.03 in / 0.8 cm Rain Light Rain
3:15 PM 41.0°F / 5.0°C 41.0°F / 5.0°C 100% 29.88 in / 1011.7 hPa 4.0 miles / 6.4 kilometers Calm Calm - 0.01 in / 0.3 cm Rain Light Rain
3:35 PM 41.0°F / 5.0°C 41.0°F / 5.0°C 100% 29.90 in / 1012.4 hPa 5.0 miles / 8.0 kilometers Calm Calm - 0.02 in / 0.5 cm Rain Light Rain
3:55 PM 41.0°F / 5.0°C 41.0°F / 5.0°C 100% 29.91 in / 1012.8 hPa 5.0 miles / 8.0 kilometers Calm Calm - 0.03 in / 0.8 cm Rain Light Rain
4:15 PM 41.0°F / 5.0°C 41.0°F / 5.0°C 100% 29.92 in / 1013.1 hPa 7.0 miles / 11.3 kilometers Calm Calm - N/A Rain Light Rain
4:35 PM 41.0°F / 5.0°C 41.0°F / 5.0°C 100% 29.94 in / 1013.8 hPa 5.0 miles / 8.0 kilometers SW 9.2 mph / 14.8 km/h - 0.01 in / 0.3 cm Rain Light Rain
4:55 PM 41.0°F / 5.0°C 41.0°F / 5.0°C 100% 29.94 in / 1013.8 hPa 9.0 miles / 14.5 kilometers SW 8.1 mph / 13.0 km/h - 0.02 in / 0.5 cm Rain Light Rain
5:15 PM 41.0°F / 5.0°C 41.0°F / 5.0°C 100% 29.95 in / 1014.1 hPa 10.0 miles / 16.1 kilometers SSW 8.1 mph / 13.0 km/h - N/A Rain Light Rain
5:35 PM 41.0°F / 5.0°C 41.0°F / 5.0°C 100% 29.96 in / 1014.4 hPa 10.0 miles / 16.1 kilometers SW 6.9 mph / 11.1 km/h - N/A Rain Light Rain
5:55 PM 41.0°F / 5.0°C 39.2°F / 4.0°C 93% 29.96 in / 1014.4 hPa 10.0 miles / 16.1 kilometers SSW 9.2 mph / 14.8 km/h - N/A   Mostly Cloudy
6:15 PM 41.0°F / 5.0°C 39.2°F / 4.0°C 93% 29.97 in / 1014.8 hPa 10.0 miles / 16.1 kilometers SSW 5.8 mph / 9.3 km/h - N/A   Mostly Cloudy
6:35 PM 41.0°F / 5.0°C 39.2°F / 4.0°C 93% 29.97 in / 1014.8 hPa 10.0 miles / 16.1 kilometers SSW 5.8 mph / 9.3 km/h - N/A   Mostly Cloudy
6:55 PM 41.0°F / 5.0°C 39.2°F / 4.0°C 93% 29.98 in / 1015.1 hPa 10.0 miles / 16.1 kilometers SSW 5.8 mph / 9.3 km/h - N/A   Scattered Clouds
7:15 PM 41.0°F / 5.0°C 39.2°F / 4.0°C 93% 30.00 in / 1015.8 hPa 10.0 miles / 16.1 kilometers SW 4.6 mph / 7.4 km/h - N/A   Scattered Clouds
7:35 PM 41.0°F / 5.0°C 39.2°F / 4.0°C 93% 30.01 in / 1016.1 hPa 10.0 miles / 16.1 kilometers SW 5.8 mph / 9.3 km/h - N/A   Partly Cloudy
7:55 PM 41.0°F / 5.0°C 39.2°F / 4.0°C 93% 30.03 in / 1016.8 hPa 10.0 miles / 16.1 kilometers Calm Calm - N/A   Partly Cloudy
8:15 PM 41.0°F / 5.0°C 39.2°F / 4.0°C 93% 30.04 in / 1017.2 hPa 10.0 miles / 16.1 kilometers SW 3.5 mph / 5.6 km/h - N/A   Mostly Cloudy
8:35 PM 41.0°F / 5.0°C 39.2°F / 4.0°C 93% 30.05 in / 1017.5 hPa 10.0 miles / 16.1 kilometers Calm Calm - N/A   Overcast
8:55 PM 41.0°F / 5.0°C 39.2°F / 4.0°C 93% 30.06 in / 1017.8 hPa 10.0 miles / 16.1 kilometers Calm Calm - N/A   Overcast
9:15 PM 41.0°F / 5.0°C 39.2°F / 4.0°C 93% 30.07 in / 1018.2 hPa 10.0 miles / 16.1 kilometers SW 3.5 mph / 5.6 km/h - N/A   Overcast
9:35 PM 41.0°F / 5.0°C 39.2°F / 4.0°C 93% 30.09 in / 1018.8 hPa 10.0 miles / 16.1 kilometers SSW 4.6 mph / 7.4 km/h - N/A   Overcast
9:55 PM 41.0°F / 5.0°C 39.2°F / 4.0°C 93% 30.10 in / 1019.2 hPa 10.0 miles / 16.1 kilometers SW 5.8 mph / 9.3 km/h - N/A   Overcast
10:15 PM 41.0°F / 5.0°C 39.2°F / 4.0°C 93% 30.11 in / 1019.5 hPa 10.0 miles / 16.1 kilometers SW 5.8 mph / 9.3 km/h - N/A   Mostly Cloudy
10:35 PM 41.0°F / 5.0°C 39.2°F / 4.0°C 93% 30.12 in / 1019.9 hPa 10.0 miles / 16.1 kilometers SW 5.8 mph / 9.3 km/h - N/A   Scattered Clouds
10:55 PM 41.0°F / 5.0°C 39.2°F / 4.0°C 93% 30.13 in / 1020.2 hPa 10.0 miles / 16.1 kilometers SSW 4.6 mph / 7.4 km/h - N/A   Overcast
11:15 PM 41.0°F / 5.0°C 39.2°F / 4.0°C 93% 30.14 in / 1020.5 hPa 10.0 miles / 16.1 kilometers Calm Calm - N/A   Overcast
11:35 PM 41.0°F / 5.0°C 39.2°F / 4.0°C 93% 30.15 in / 1020.9 hPa 10.0 miles / 16.1 kilometers SSW 3.5 mph / 5.6 km/h - N/A   Overcast
11:55 PM 41.0°F / 5.0°C 39.2°F / 4.0°C 93% 30.16 in / 1021.2 hPa 10.0 miles / 16.1 kilometers Calm Calm - N/A   Overcast
Moon Phase
Jan. 23 Jan. 26 Feb. 03 Feb. 10 Feb. 17
Sunrise:07:44 AM (PST) Moon Rise:02:10 PM (PST)1/23
Sunset:04:58 PM (PST) Moon Set:05:03 AM (PST)1/23

Copyright © 2014 The Weather Underground, Inc.